This demonstration page uses our WeatherBlox Daily Observations layout. Learn more.

Left ArrowRight Arrow

Hourly Observations for January 17, 2015

Temp ( °F °C ) Dew Point ( °F °C ) Humidity (%) Winds ( mph kmh ) Pressure ( in mb ) Visibility ( mi km ) Precip ( " mm )
12:53 am 00:53 Clear 31 -0.6 27 -2.8 85 85 Calm 30.22 1024 10 16 0.00 0.00
1:53 am 01:53 Clear 30 -1.1 27 -2.8 88 88 Calm 30.22 1024 10 16 0.00 0.00
2:53 am 02:53 Clear 29 -1.7 26 -3.3 89 89 Calm 30.22 1024 8 13 0.00 0.00
3:53 am 03:53 Clear 28 -2.2 26 -3.3 92 92 Calm 30.23 1024 8 13 0.00 0.00
4:53 am 04:53 Clear with Mist and Fog 28 -2.2 24 -4.4 85 85 Calm 30.23 1024 6 10 0.00 0.00
5:53 am 05:53 Clear 27 -2.8 23 -5 85 85 Calm 30.24 1024 9 14 0.00 0.00
6:53 am 06:53 Clear 27 -2.8 24 -4.4 89 89 Calm 30.25 1024 10 16 0.00 0.00
7:53 am 07:53 Sunny 28 -2.2 24 -4.4 85 85 Calm 30.26 1025 8 13 0.00 0.00
8:53 am 08:53 Sunny 29 -1.7 26 -3.3 89 89 Calm 30.28 1026 9 14 0.00 0.00
9:53 am 09:53 Sunny 33 0.6 30 -1.1 89 89 Calm 30.29 1026 7 11 0.00 0.00
10:53 am 10:53 Sunny 42 5.6 34 1.1 73 73 Calm 30.28 1026 10 16 0.00 0.00
11:53 am 11:53 Sunny 51 10.6 31 -0.6 46 46 SSE 10 17 30.27 1025 10 16 0.00 0.00
12:53 pm 12:53 Sunny 54 12.2 31 -0.6 42 42 S 8 13 30.24 1024 10 16 0.00 0.00
1:53 pm 13:53 Sunny 58 14.4 31 -0.6 36 36 VRB 6 9 30.19 1023 10 16 0.00 0.00
2:53 pm 14:53 Sunny 57 13.9 30 -1.1 36 36 S 10 17 30.17 1022 10 16 0.00 0.00
3:53 pm 15:53 Sunny 58 14.4 29 -1.7 33 33 S 12 19 30.15 1021 10 16 0.00 0.00
4:53 pm 16:53 Sunny 58 14.4 29 -1.7 33 33 SSE 6 9 30.13 1020 10 16 0.00 0.00
5:53 pm 17:53 Sunny 56 13.3 27 -2.8 33 33 S 6 9 30.14 1021 10 16 0.00 0.00
6:53 pm 18:53 Clear 48 8.9 29 -1.7 48 48 Calm 30.16 1021 10 16 0.00 0.00
7:53 pm 19:53 Clear 43 6.1 31 -0.6 63 63 Calm 30.15 1021 10 16 0.00 0.00
8:53 pm 20:53 Clear 42 5.6 31 -0.6 65 65 Calm 30.15 1021 10 16 0.00 0.00
9:53 pm 21:53 Clear 39 3.9 30 -1.1 70 70 Calm 30.15 1021 10 16 0.00 0.00
10:53 pm 22:53 Partly Cloudy 36 2.2 30 -1.1 79 79 Calm 30.14 1021 10 16 0.00 0.00
11:53 pm 23:53 Clear 34 1.1 29 -1.7 82 82 Calm 30.11 1020 10 16 0.00 0.00

Powered by AerisWeather